Latest Coastal Weather Observations for Northern Endeavour (near 10.5S 126E)

IDD60701

Issued at 4:41 am CST Monday 15 February 2016 (issued every 10 minutes, with the page automatically refreshed every 10 minutes)

About coastal observations | Map of coastal stations | Coastal observations for NT | Marine services | Other Formats
Station Details ID: 200212 Name: NORTHERN ENDEAVOUR Lat: -10.61 Lon: 125.98 Height: 16.0 m
Data from the previous 72 hours. | See also: Recent months for locations in Northern Territory
Date/Time
CST
Temp

°C
Wind Pressure Rain
since 9am
mm
Weather Cloud Vis
km
Sea
Height
m
Swell
Dir
 
Speed
knots
Gust
knots
hPa Trend Height
m
Period
s
Dir
15/04:30am 29.3 W 8 11 1008.8 - - - Partly cloudy 10 - - - -
15/04:20am 29.3 W 8 10 1008.8 - - - - 10 - - - -
15/04:10am 29.4 W 9 10 1008.7 - - - - 10 - - - -
15/04:00am 29.4 W 9 10 1008.7 - - - - 10 - - - -
15/03:50am 29.3 W 8 10 1008.7 - - - - 10 - - - -
15/03:40am 29.3 W 9 11 1008.7 - - - - 10 - - - -
15/03:30am 29.3 W 8 10 1008.7 - - - - 10 - - - -
15/03:20am 29.3 W 9 11 1008.7 - - - - 10 - - - -
15/03:10am 29.3 W 8 10 1008.8 - - - Partly cloudy 10 - - - -
15/03:00am 29.3 W 8 12 1008.9 - - - Partly cloudy 10 - - - -
15/02:50am 29.3 W 9 11 1009.1 - - - Partly cloudy 10 - - - -
15/02:40am 29.4 WSW 9 11 1009.4 - - - Partly cloudy 10 - - - -
15/02:30am 29.4 WSW 9 11 1009.5 - - - Partly cloudy 10 - - - -
15/02:20am 29.4 WSW 9 11 1009.7 - - - Partly cloudy 10 - - - -
15/02:10am 29.4 WSW 8 10 1009.7 - - - Cloudy 10 - - - -
15/02:00am 29.5 WSW 7 11 1009.8 - - - Cloudy 10 - - - -
15/01:50am 29.5 SW 8 8 1009.9 - - - Partly cloudy 10 - - - -
15/01:40am 29.5 SW 8 10 1010.0 - - - Partly cloudy 10 - - - -
15/01:30am 29.5 SW 8 10 1010.2 - - - Partly cloudy 10 - - - -
15/01:20am 29.5 SW 8 10 1010.3 - - - Partly cloudy 10 - - - -
15/01:10am 29.5 SSW 10 11 1010.4 - - - Partly cloudy 10 - - - -
15/01:00am 29.6 SSW 10 10 1010.6 - - - Partly cloudy 10 - - - -
15/12:50am 29.6 SSW 9 11 1010.8 - - - Partly cloudy 10 - - - -
15/12:40am 29.7 SSW 9 11 1011.0 - - - Partly cloudy 10 - - - -
15/12:30am 29.7 SSW 9 12 1011.2 - - - Partly cloudy 10 - - - -
15/12:20am 29.7 SSW 9 9 1011.2 - - - Partly cloudy 10 - - - -
15/12:10am 29.6 SSW 9 12 1011.3 - - - - 10 - - - -
15/12:00am 29.7 SSW 9 11 1011.3 - - - Partly cloudy 10 - - - -
 
Date/Time
CST
Temp

°C
Wind Pressure Rain
since 9am
mm
Weather Cloud Vis
km
Sea
Height
m
Swell
Dir
 
Speed
knots
Gust
knots
hPa Trend Height
m
Period
s
Dir
14/11:50pm 29.8 SW 10 10 1011.5 - - - - 10 - - - -
14/11:40pm 29.9 SSW 8 12 1011.4 - - - Partly cloudy 10 - - - -
14/11:30pm 30.0 SSW 9 12 1011.6 - - - Partly cloudy 10 - - - -
14/11:20pm 30.0 SSW 8 11 1011.6 - - - Partly cloudy 10 - - - -
14/11:10pm 30.1 SW 7 9 1011.7 - - - Partly cloudy 10 - - - -
14/11:00pm 30.0 SW 9 7 1011.6 - - - Partly cloudy 10 - - - -
14/10:50pm 30.0 SW 9 12 1011.4 - - - Partly cloudy 10 - - - -
14/10:40pm 29.9 SW 9 13 1011.2 - - - - 10 - - - -
14/10:30pm 29.9 SW 9 10 1011.0 - - - Partly cloudy 10 - - - -
14/10:20pm 29.9 SW 10 10 1010.9 - - - Partly cloudy 10 - - - -
14/10:10pm 29.8 SW 10 10 1010.7 - - - Partly cloudy 10 - - - -
14/10:00pm 29.8 SW 10 11 1010.5 - - - - 10 - - - -
14/09:50pm 29.7 WSW 11 11 1010.2 - - - - 10 - - - -
14/09:40pm 29.8 W 11 11 1010.0 - - - - 10 - - - -
14/09:30pm 29.8 W 12 12 1009.9 - - - - 10 - - - -
14/09:20pm 30.0 W 12 14 1009.9 - - - - 10 - - - -
14/09:10pm 30.3 WSW 13 16 1009.9 - - - - 10 - - - -
14/09:00pm 30.4 WSW 13 14 1009.9 - - - Partly cloudy 10 - - - -
14/08:50pm 30.3 WSW 12 13 1009.9 - - - Partly cloudy 10 - - - -
14/08:40pm 30.4 WSW 12 14 1009.8 - - - - 10 - - - -
14/08:30pm 30.6 WSW 11 15 1009.8 - - - Partly cloudy 10 - - - -
14/08:20pm 30.4 WSW 12 14 1009.5 - - - Partly cloudy 10 - - - -
14/08:10pm 30.4 W 11 15 1009.3 - - - Partly cloudy 10 - - - -
14/08:00pm 30.4 W 12 13 1009.1 - - - - 10 - - - -
14/07:50pm 30.5 W 12 15 1008.9 - - - - 10 - - - -
14/07:40pm 30.5 W 12 13 1008.8 - - - - 10 - - - -
14/07:30pm 30.5 W 12 14 1008.6 - - - - 10 - - - -
14/07:20pm 30.5 W 12 14 1008.4 - - - - 10 - - - -
14/07:10pm 30.6 W 12 12 1008.3 - - - - 10 - - - -
14/07:00pm 30.8 W 12 14 1008.3 - - - - 5 - - - -
14/06:50pm 31.0 WSW 11 12 1008.2 - - - - 1 - - - -
14/06:40pm 31.1 W 10 11 1008.2 - - - - 0.3 - - - -
14/06:30pm 30.5 WSW 8 10 1008.0 - - - - 0.5 - - - -
14/06:20pm 30.5 WSW 8 10 1007.9 - - - - 0.8 - - - -
14/06:10pm 30.8 W 8 11 1007.9 - - - - 0.8 - - - -
14/06:00pm 30.6 W 9 10 1007.7 - - - - 9 - - - -
14/05:50pm 31.0 W 10 11 1007.5 - - - - 10 - - - -
14/05:40pm 30.7 W 9 11 1007.5 - - - - 10 - - - -
14/05:30pm 30.7 WSW 8 8 1007.4 - - - - 10 - - - -
14/05:20pm 30.6 SW 8 10 1007.3 - - - - 10 - - - -
14/05:10pm 30.6 WSW 8 11 1007.2 - - - - 10 - - - -
14/05:00pm 30.6 WSW 8 11 1007.1 - - - - 10 - - - -
14/04:50pm 30.6 SW 9 10 1007.1 - - - - 10 - - - -
14/04:40pm 30.8 WSW 8 11 1007.1 - - - - 10 - - - -
14/04:30pm 30.6 SW 9 11 1007.1 - - - - 10 - - - -
14/04:20pm 30.8 SW 8 10 1007.0 - - - - 10 - - - -
14/04:10pm 30.6 SW 9 11 1007.1 - - - - 10 - - - -
14/04:00pm 30.8 SW 9 8 1007.1 - - - - 10 - - - -
14/03:50pm 30.7 SW 10 12 1007.3 - - - - 10 - - - -
14/03:40pm 30.5 SW 10 10 1007.4 - - - - 10 - - - -
14/03:30pm 30.4 SW 11 12 1007.5 - - - - 10 - - - -
14/03:20pm 30.4 SW 12 13 1007.7 - - - - 10 - - - -
14/03:10pm 30.7 WSW 10 12 1007.8 - - - - 10 - - - -
14/03:00pm 30.5 WSW 12 14 1007.8 - - - - 10 - - - -
14/02:50pm 30.4 WSW 13 14 1007.8 - - - - 10 - - - -
14/02:40pm 30.3 WSW 14 15 1007.8 - - - - 10 - - - -
14/02:30pm 30.3 WSW 14 15 1007.8 - - - - 10 - - - -
14/02:20pm 30.3 WSW 14 15 1007.8 - - - - 10 - - - -
14/02:10pm 30.2 WSW 15 15 1008.0 - - - - 10 - - - -
14/02:00pm 30.3 WSW 14 15 1008.1 - - - - 10 - - - -
14/01:50pm 30.4 WSW 14 16 1008.3 - - - - 10 - - - -
14/01:40pm 30.3 WSW 11 16 1008.6 - - - - 10 - - - -
14/01:30pm 30.3 WSW 12 15 1008.8 - - - - 10 - - - -
14/01:20pm 30.3 SW 13 15 1009.0 - - - Partly cloudy 10 - - - -
14/01:10pm 30.2 SW 11 13 1009.2 - - - Partly cloudy 10 - - - -
14/01:00pm 30.0 SW 11 15 1009.4 - - - Partly cloudy 10 - - - -
14/12:50pm 30.0 SW 11 12 1009.6 - - - - 10 - - - -
14/12:40pm 30.1 WSW 11 12 1009.8 - - - - 10 - - - -
14/12:30pm 30.2 WSW 9 11 1009.9 - - - - 10 - - - -
14/12:20pm 30.9 WSW 8 10 1010.1 - - - Partly cloudy 10 - - - -
14/12:10pm 30.8 WSW 8 11 1010.2 - - - Partly cloudy 10 - - - -
14/12:00pm 30.8 WSW 10 8 1010.3 - - - Partly cloudy 10 - - - -
14/11:50am 30.2 WSW 12 12 1010.4 - - - Partly cloudy 10 - - - -
14/11:40am 30.0 WSW 10 13 1010.4 - - - Partly cloudy 10 - - - -
14/11:30am 30.0 WSW 10 12 1010.5 - - - Partly cloudy 10 - - - -
14/11:20am 31.4 W 11 11 1010.7 - - - Partly cloudy 10 - - - -
14/11:10am 32.4 WSW 10 13 1010.6 - - - Partly cloudy 10 - - - -
14/11:00am 31.4 WSW 12 13 1010.6 - - - Partly cloudy 10 - - - -
14/10:50am 31.3 WSW 13 13 1010.7 - - - Partly cloudy 10 - - - -
14/10:40am 30.9 WSW 14 13 1010.8 - - - Partly cloudy 10 - - - -
14/10:30am 31.0 WSW 13 14 1010.8 - - - - 10 - - - -
14/10:20am 30.6 W 13 14 1010.7 - - - - 10 - - - -
14/10:10am 30.2 W 14 14 1010.9 - - - - 10 - - - -
14/10:00am 29.9 W 14 15 1010.6 - - - Partly cloudy 10 - - - -
14/09:50am 30.2 WSW 13 14 1010.8 - - - Partly cloudy 10 - - - -
14/09:40am 29.8 WSW 13 13 1010.7 - - - Partly cloudy 10 - - - -
14/09:30am 29.8 WSW 13 14 1010.5 - - - Partly cloudy 10 - - - -
14/09:20am 29.9 WSW 12 14 1010.8 - - - Partly cloudy 10 - - - -
14/09:10am 30.0 WSW 11 12 1010.7 - - - Partly cloudy 10 - - - -
14/09:00am 30.5 WSW 11 12 1010.6 - - - Partly cloudy 10 - - - -
14/08:50am 30.7 WSW 11 12 1010.6 - - - Partly cloudy 10 - - - -
14/08:40am 30.6 WSW 11 10 1010.5 - - - Partly cloudy 10 - - - -
14/08:30am 30.9 WSW 11 12 1010.3 - - - Partly cloudy 10 - - - -
14/08:20am 30.7 WSW 11 13 1010.3 - - - Partly cloudy 10 - - - -
14/08:10am 31.3 WSW 12 13 1010.1 - - - Partly cloudy 10 - - - -
14/08:00am 30.5 WSW 10 14 1010.0 - - - Partly cloudy 10 - - - -
14/07:50am 30.3 W 11 13 1009.8 - - - Partly cloudy 10 - - - -
14/07:40am 30.0 W 11 11 1009.7 - - - - 10 - - - -
14/07:30am 30.1 W 11 14 1009.7 - - - Partly cloudy 10 - - - -
14/07:20am 29.8 W 12 12 1009.6 - - - Partly cloudy 10 - - - -
14/07:10am 29.9 W 12 14 1009.4 - - - Partly cloudy 10 - - - -
14/07:00am 29.4 W 8 10 1009.3 - - - Partly cloudy 10 - - - -
14/06:50am 29.4 W 8 11 1009.2 - - - Partly cloudy 10 - - - -
14/06:40am 29.5 W 12 12 1009.1 - - - - 10 - - - -
14/06:30am 29.5 W 12 14 1008.9 - - - - 10 - - - -
14/06:20am 29.4 W 10 11 1008.8 - - - - 10 - - - -
14/06:10am 29.4 W 11 13 1008.7 - - - - 10 - - - -
14/06:00am 29.4 W 10 12 1008.5 - - - - 10 - - - -
14/05:50am 29.6 W 12 11 1008.5 - - - - 10 - - - -
14/05:40am 29.5 W 12 13 1008.5 - - - - 10 - - - -
14/05:30am 29.5 W 12 13 1008.4 - - - - 10 - - - -
14/05:20am 29.5 W 11 12 1008.3 - - - - 10 - - - -
14/05:10am 29.5 W 11 12 1008.2 - - - Partly cloudy 10 - - - -
14/05:00am 29.4 W 11 11 1008.2 - - - Partly cloudy 10 - - - -
14/04:50am 29.5 W 11 12 1008.2 - - - Partly cloudy 10 - - - -
14/04:40am 29.5 W 11 12 1008.1 - - - Partly cloudy 10 - - - -
14/04:30am 29.5 W 11 13 1008.0 - - - Partly cloudy 10 - - - -
14/04:20am 29.4 W 10 10 1008.1 - - - Partly cloudy 10 - - - -
14/04:10am 29.3 W 9 8 1008.1 - - - Partly cloudy 10 - - - -
14/04:00am 29.4 W 11 12 1008.3 - - - Partly cloudy 10 - - - -
14/03:50am 29.4 WSW 9 13 1008.3 - - - Cloudy 10 - - - -
14/03:40am 29.3 WSW 9 12 1008.3 - - - Cloudy 10 - - - -
14/03:30am 29.5 WSW 11 12 1008.5 - - - Cloudy 10 - - - -
14/03:20am 29.4 WSW 10 13 1008.5 - - - Partly cloudy 10 - - - -
14/03:10am 29.6 WSW 10 14 1008.6 - - - Partly cloudy 10 - - - -
14/03:00am 29.5 WSW 10 13 1008.7 - - - Partly cloudy 10 - - - -
14/02:50am 29.5 WSW 9 11 1008.9 - - - Partly cloudy 10 - - - -
14/02:40am 29.5 WSW 10 14 1009.0 - - - Partly cloudy 10 - - - -
14/02:30am 29.5 SW 12 14 1009.1 - - - Partly cloudy 10 - - - -
14/02:20am 29.5 SW 13 14 1009.1 - - - Partly cloudy 10 - - - -
14/02:10am 29.5 SW 13 15 1009.1 - - - Partly cloudy 10 - - - -
14/02:00am 29.6 SW 12 14 1009.2 - - - Partly cloudy 10 - - - -
14/01:50am 29.6 SW 13 13 1009.3 - - - Partly cloudy 10 - - - -
14/01:40am 29.5 SW 11 13 1009.3 - - - Partly cloudy 10 - - - -
14/01:30am 29.5 SW 11 12 1009.5 - - - Partly cloudy 10 - - - -
14/01:20am 29.6 WSW 12 13 1009.7 - - - Partly cloudy 10 - - - -
14/01:10am 29.6 WSW 10 13 1009.8 - - - Partly cloudy 10 - - - -
14/01:00am 29.7 WSW 10 12 1010.0 - - - - 10 - - - -
14/12:50am 29.7 WSW 10 14 1010.3 - - - - 10 - - - -
14/12:40am 29.8 WSW 11 13 1010.4 - - - Partly cloudy 10 - - - -
14/12:30am 29.9 WSW 11 13 1010.6 - - - Partly cloudy 10 - - - -
14/12:20am 29.7 SW 10 14 1010.8 - - - Partly cloudy 10 - - - -
14/12:10am 29.9 SW 10 11 1011.0 - - - Partly cloudy 10 - - - -
14/12:00am 29.8 WSW 9 13 1011.0 - - - - 10 - - - -
 
Date/Time
CST
Temp

°C
Wind Pressure Rain
since 9am
mm
Weather Cloud Vis
km
Sea
Height
m
Swell
Dir
 
Speed
knots
Gust
knots
hPa Trend Height
m
Period
s
Dir
13/11:50pm 29.9 WSW 8 13 1011.0 - - - - 10 - - - -
13/11:40pm 29.9 WSW 11 11 1011.1 - - - Partly cloudy 10 - - - -
13/11:30pm 30.1 WSW 11 13 1011.1 - - - Partly cloudy 10 - - - -
13/11:20pm 30.1 WSW 10 12 1011.3 - - - Partly cloudy 10 - - - -
13/11:10pm 30.3 WSW 9 14 1011.4 - - - Partly cloudy 10 - - - -
13/11:00pm 30.3 WSW 11 15 1011.4 - - - Partly cloudy 10 - - - -
13/10:50pm 30.1 WSW 11 11 1011.5 - - - - 10 - - - -
13/10:40pm 29.9 WSW 12 12 1011.4 - - - - 10 - - - -
13/10:30pm 29.9 WSW 12 13 1011.3 - - - - 10 - - - -
13/10:20pm 29.9 SW 12 13 1011.2 - - - - 10 - - - -
13/10:10pm 29.9 SW 12 13 1011.2 - - - - 10 - - - -
13/10:00pm 29.9 WSW 13 13 1011.1 - - - Partly cloudy 10 - - - -
13/09:50pm 30.0 SW 12 12 1011.1 - - - - 10 - - - -
13/09:40pm 29.9 SW 12 13 1010.9 - - - Partly cloudy 10 - - - -
13/09:30pm 30.0 SW 12 13 1010.9 - - - Partly cloudy 10 - - - -
13/09:20pm 30.0 SW 12 13 1010.8 - - - Partly cloudy 10 - - - -
13/09:10pm 29.9 SW 11 13 1010.6 - - - Partly cloudy 10 - - - -
13/09:00pm 30.0 SW 11 11 1010.3 - - - - 10 - - - -
13/08:50pm 30.1 SW 12 12 1010.1 - - - - 10 - - - -
13/08:40pm 30.2 SW 12 13 1009.9 - - - - 10 - - - -
13/08:30pm 30.1 WSW 12 13 1009.8 - - - Partly cloudy 10 - - - -
13/08:20pm 30.4 WSW 11 16 1009.5 - - - Partly cloudy 10 - - - -
13/08:10pm 30.3 WSW 11 13 1009.4 - - - Partly cloudy 10 - - - -
13/08:00pm 30.5 WSW 11 14 1009.3 - - - Partly cloudy 10 - - - -
13/07:50pm 30.5 WSW 11 13 1009.2 - - - Partly cloudy 10 - - - -
13/07:40pm 30.5 WSW 11 12 1009.1 - - - Partly cloudy 10 - - - -
13/07:30pm 30.7 WSW 10 11 1009.1 - - - Partly cloudy 10 - - - -
13/07:20pm 30.9 WSW 10 12 1009.0 - - - Partly cloudy 10 - - - -
13/07:10pm 31.0 W 11 11 1008.9 - - - Partly cloudy 10 - - - -
13/07:00pm 31.1 WSW 10 10 1008.8 - - - Partly cloudy 10 - - - -
13/06:50pm 31.2 WSW 11 12 1008.7 - - - Partly cloudy 10 - - - -
13/06:40pm 31.3 WSW 10 11 1008.5 - - - Cloudy 10 - - - -
13/06:30pm 31.8 WSW 10 11 1008.2 - - - Cloudy 10 - - - -
13/06:20pm 31.3 WSW 11 12 1008.2 - - - Partly cloudy 10 - - - -
13/06:10pm 31.1 WSW 12 13 1008.2 - - - Partly cloudy 10 - - - -
13/06:00pm 31.6 WSW 12 12 1008.1 - - - Partly cloudy 10 - - - -
13/05:50pm 31.7 WSW 11 11 1008.0 - - - Partly cloudy 10 - - - -
13/05:40pm 31.0 WSW 12 13 1007.9 - - - Partly cloudy 10 - - - -
13/05:30pm 30.5 WSW 9 13 1007.9 - - - Partly cloudy 10 - - - -
13/05:20pm 31.0 WSW 12 14 1007.8 - - - Partly cloudy 10 - - - -
13/05:10pm 31.0 WSW 11 15 1007.8 - - - Partly cloudy 10 - - - -
13/05:00pm 30.8 WSW 11 14 1007.8 - - - Partly cloudy 10 - - - -
13/04:50pm 30.9 WSW 9 13 1007.8 - - - Partly cloudy 10 - - - -
13/04:40pm 30.7 WSW 9 10 1007.9 - - - Partly cloudy 10 - - - -
13/04:30pm 31.7 WSW 13 13 1007.9 - - - Partly cloudy 10 - - - -
13/04:20pm 31.3 WSW 11 14 1007.9 - - - Partly cloudy 10 - - - -
13/04:10pm 31.1 WSW 13 14 1008.0 - - - Partly cloudy 10 - - - -
13/04:00pm 30.8 WSW 9 14 1007.9 - - - Partly cloudy 10 - - - -
13/03:50pm 31.1 WSW 12 12 1007.9 - - - Partly cloudy 10 - - - -
13/03:40pm 31.2 WSW 10 12 1008.0 - - - Partly cloudy 10 - - - -
13/03:30pm 30.7 WSW 9 11 1008.1 - - - Partly cloudy 10 - - - -
13/03:20pm 30.9 W 10 12 1008.3 - - - Partly cloudy 10 - - - -
13/03:10pm 31.7 WSW 12 13 1008.3 - - - Partly cloudy 10 - - - -
13/03:00pm 31.5 W 10 12 1008.4 - - - Partly cloudy 10 - - - -
13/02:50pm 30.8 W 10 13 1008.4 - - - Partly cloudy 10 - - - -
13/02:40pm 32.5 W 13 14 1008.5 - - - Partly cloudy 10 - - - -
13/02:30pm 31.7 W 13 14 1008.7 - - - Partly cloudy 10 - - - -
13/02:20pm 32.1 W 14 15 1008.7 - - - Partly cloudy 10 - - - -
13/02:10pm 31.9 W 13 15 1008.8 - - - Partly cloudy 10 - - - -
13/02:00pm 31.8 W 12 14 1008.9 - - - Partly cloudy 10 - - - -
13/01:50pm 31.0 WSW 10 14 1009.0 - - - Partly cloudy 10 - - - -
13/01:40pm 30.8 W 8 13 1009.2 - - - Partly cloudy 10 - - - -
13/01:30pm 30.7 W 9 11 1009.3 - - - Partly cloudy 10 - - - -
13/01:20pm 31.0 W 10 14 1009.4 - - - Partly cloudy 10 - - - -
13/01:10pm 30.5 WSW 7 11 1009.4 - - - Partly cloudy 10 - - - -
13/01:00pm 30.6 WSW 8 11 1009.6 - - - Partly cloudy 10 - - - -
13/12:50pm 30.7 W 8 11 1009.7 - - - Partly cloudy 10 - - - -
13/12:40pm 30.8 W 9 11 1009.8 - - - - 10 - - - -
13/12:30pm 30.8 W 11 12 1009.9 - - - - 10 - - - -
13/12:20pm 31.4 W 13 15 1010.1 - - - - 10 - - - -
13/12:10pm 31.5 W 13 15 1010.2 - - - - 10 - - - -
13/12:00pm 32.0 W 13 15 1010.2 - - - - 10 - - - -
13/11:50am 31.2 W 13 15 1010.3 - - - - 10 - - - -
13/11:40am 31.8 W 16 15 1010.5 - - - Partly cloudy 10 - - - -
13/11:30am 32.3 W 14 16 1010.7 - - - Partly cloudy 10 - - - -
13/11:20am 32.5 W 16 16 1010.8 - - - Partly cloudy 10 - - - -
13/11:10am 31.2 W 10 15 1010.8 - - - Partly cloudy 10 - - - -
13/11:00am 31.5 W 13 13 1010.8 - - - Partly cloudy 10 - - - -
13/10:50am 33.0 W 13 15 1011.0 - - - Partly cloudy 10 - - - -
13/10:40am 33.1 W 14 15 1011.0 - - - Partly cloudy 10 - - - -
13/10:30am 32.8 W 13 15 1011.1 - - - Partly cloudy 10 - - - -
13/10:20am 33.0 W 13 14 1011.3 - - - Partly cloudy 10 - - - -
13/10:10am 32.7 W 14 16 1011.3 - - - Partly cloudy 10 - - - -
13/10:00am 32.6 WSW 14 16 1011.3 - - - Partly cloudy 10 - - - -
13/09:50am 32.3 WSW 15 17 1011.3 - - - Partly cloudy 10 - - - -
13/09:40am 32.2 WSW 16 16 1011.3 - - - Partly cloudy 10 - - - -
13/09:30am 32.0 WSW 15 16 1011.2 - - - Partly cloudy 10 - - - -
13/09:20am 31.8 WSW 16 18 1011.1 - - - Partly cloudy 10 - - - -
13/09:10am 31.6 W 16 16 1011.0 - - - Partly cloudy 10 - - - -
13/09:00am 31.8 WSW 16 17 1011.0 - - - Partly cloudy 10 - - - -
13/08:50am 32.0 WSW 18 18 1011.0 - - - Partly cloudy 10 - - - -
13/08:40am 32.2 W 18 18 1010.8 - - - - 10 - - - -
13/08:30am 32.5 WSW 18 21 1010.7 - - - - 10 - - - -
13/08:20am 32.5 W 19 20 1010.6 - - - Partly cloudy 10 - - - -
13/08:10am 31.7 W 19 23 1010.4 - - - Partly cloudy 10 - - - -
13/08:00am 30.6 W 19 21 1010.4 - - - Partly cloudy 10 - - - -
13/07:50am 30.6 W 19 20 1010.4 - - - Partly cloudy 10 - - - -
13/07:40am 30.7 W 20 21 1010.2 - - - Partly cloudy 10 - - - -
13/07:30am 30.0 W 20 22 1010.1 - - - Partly cloudy 10 - - - -
13/07:20am 29.7 W 20 21 1010.0 - - - Partly cloudy 10 - - - -
13/07:10am 29.7 W 20 22 1009.9 - - - Partly cloudy 10 - - - -
13/07:00am 29.5 W 16 19 1009.8 - - - Partly cloudy 10 - - - -
13/06:50am 29.8 W 17 16 1009.7 - - - Partly cloudy 10 - - - -
13/06:40am 30.4 W 19 21 1009.6 - - - Partly cloudy 10 - - - -
13/06:30am 29.5 W 19 21 1009.5 - - - Partly cloudy 10 - - - -
13/06:20am 29.3 W 19 20 1009.5 - - - - 10 - - - -
13/06:10am 29.3 W 19 20 1009.4 - - - - 10 - - - -
13/06:00am 29.2 W 18 20 1009.2 - - - Partly cloudy 10 - - - -
13/05:50am 29.1 W 17 19 1009.0 - - - Partly cloudy 10 - - - -
13/05:40am 28.9 WSW 16 18 1008.9 - - - Partly cloudy 10 - - - -
13/05:30am 28.9 WSW 17 17 1008.7 - - - Partly cloudy 10 - - - -
13/05:20am 29.0 WSW 18 18 1008.7 - - - Partly cloudy 10 - - - -
13/05:10am 29.0 WSW 17 18 1008.6 - - - Partly cloudy 10 - - - -
13/05:00am 28.9 WSW 15 18 1008.6 - - - Partly cloudy 10 - - - -
13/04:50am 28.5 WSW 14 19 1008.6 - - - Partly cloudy 10 - - - -
13/04:40am 28.7 WSW 17 18 1008.6 - - - Cloudy 10 - - - -
13/04:30am 28.8 W 16 18 1008.6 - - - Partly cloudy 10 - - - -
13/04:20am 28.8 W 17 17 1008.6 - - - Partly cloudy 10 - - - -
13/04:10am 28.7 W 20 21 1008.6 - - - Partly cloudy 10 - - - -
13/04:00am 29.1 WSW 19 23 1008.7 - - - Partly cloudy 10 - - - -
13/03:50am 29.1 WSW 16 17 1008.8 - - - - 10 - - - -
13/03:40am 28.8 WSW 13 16 1008.6 - - - - 10 - - - -
13/03:30am 28.8 WSW 16 18 1008.5 - - - - 10 - - - -
13/03:20am 28.9 WSW 15 20 1008.6 - - - - 10 - - - -
13/03:10am 29.1 WSW 17 20 1008.7 - - - - 10 - - - -
13/03:00am 29.0 WSW 15 19 1008.8 - - - Partly cloudy 10 - - - -
13/02:50am 28.9 SW 14 20 1009.0 - - - Partly cloudy 10 - - - -
13/02:40am 28.5 SW 15 17 1009.1 - - - Partly cloudy 10 - - - -
13/02:30am 28.6 SW 17 22 1009.0 - - - Partly cloudy 10 - - - -
13/02:20am 28.7 SW 18 22 1009.2 - - - Partly cloudy 10 - - - -
13/02:10am 28.7 SW 21 21 1009.5 - - - Partly cloudy 10 - - - -
13/02:03am 28.8 WSW 19 29 1009.3 - - - Partly cloudy 10 - - - -
13/02:01am 29.5 WSW 18 32 1009.2 - - - Partly cloudy 10 - - - -
13/02:00am 29.8 WSW 17 21 1009.5 - - - Partly cloudy 10 - - - -
13/01:50am 29.6 WSW 14 20 1009.5 - - - Partly cloudy 10 - - - -
13/01:40am 29.6 WSW 14 18 1009.6 - - - Partly cloudy 10 - - - -
13/01:30am 29.7 WSW 16 19 1009.7 - - - Partly cloudy 10 - - - -
13/01:20am 29.6 WSW 14 17 1009.8 - - - Partly cloudy 10 - - - -
13/01:10am 29.5 WSW 14 20 1009.8 - - - Partly cloudy 10 - - - -
13/01:00am 29.3 WSW 10 15 1009.8 - - - Partly cloudy 10 - - - -
13/12:50am 28.7 WSW 9 12 1010.0 - - - Partly cloudy 10 - - - -
13/12:40am 28.4 WSW 9 10 1010.1 - - - Partly cloudy 10 - - - -
13/12:30am 28.5 W 10 12 1010.2 - - - Partly cloudy 10 - - - -
13/12:20am 27.7 WNW 13 14 1010.2 - - - Partly cloudy 10 - - - -
13/12:10am 27.4 W 14 18 1010.1 - - - Partly cloudy 9 - - - -
13/12:00am 28.2 W 21 20 1010.4 - - - Partly cloudy 10 - - - -
 
Date/Time
CST
Temp

°C
Wind Pressure Rain
since 9am
mm
Weather Cloud Vis
km
Sea
Height
m
Swell
Dir
 
Speed
knots
Gust
knots
hPa Trend Height
m
Period
s
Dir
12/11:50pm 28.6 WSW 19 27 1010.4 - - - Partly cloudy 10 - - - -
12/11:48pm 29.2 WSW 17 28 1010.5 - - - Partly cloudy 10 - - - -
12/11:40pm 29.3 WSW 14 19 1010.5 - - - Partly cloudy 10 - - - -
12/11:30pm 29.8 WSW 11 13 1010.6 - - - Partly cloudy 10 - - - -
12/11:20pm 29.8 WSW 11 12 1010.6 - - - Partly cloudy 10 - - - -
12/11:10pm 29.9 WSW 12 16 1010.7 - - - Partly cloudy 10 - - - -
12/11:00pm 29.9 WSW 10 15 1010.8 - - - Partly cloudy 10 - - - -
12/10:50pm 29.9 WSW 12 16 1010.9 - - - Partly cloudy 10 - - - -
12/10:40pm 29.9 WSW 12 15 1010.6 - - - Partly cloudy 10 - - - -
12/10:30pm 29.9 WSW 12 19 1010.5 - - - Partly cloudy 10 - - - -
12/10:20pm 30.0 WSW 14 15 1010.5 - - - Partly cloudy 10 - - - -
12/10:10pm 30.6 WSW 16 18 1010.4 - - - Partly cloudy 10 - - - -
12/10:00pm 30.8 WSW 17 19 1010.1 - - - Cloudy 10 - - - -
12/09:50pm 30.0 WSW 15 15 1009.9 - - - Cloudy 10 - - - -
12/09:40pm 30.0 WSW 17 17 1009.9 - - - Cloudy 10 - - - -
12/09:30pm 30.0 WSW 17 18 1009.8 - - - Cloudy 10 - - - -
12/09:20pm 30.0 WSW 17 18 1009.5 - - - Cloudy 10 - - - -
12/09:10pm 30.1 WSW 17 18 1009.4 - - - Cloudy 10 - - - -
12/09:00pm 30.1 WSW 17 18 1009.4 - - - Cloudy 10 - - - -
12/08:50pm 30.2 WSW 19 20 1009.3 - - - Partly cloudy 10 - - - -
12/08:40pm 30.3 WSW 19 21 1009.2 - - - Partly cloudy 10 - - - -
12/08:30pm 30.3 WSW 20 20 1009.0 - - - Partly cloudy 10 - - - -
12/08:20pm 30.3 W 18 20 1009.0 - - - Partly cloudy 10 - - - -
12/08:10pm 30.6 W 19 19 1009.0 - - - Partly cloudy 10 - - - -
12/08:00pm 31.2 WSW 18 20 1008.8 - - - Partly cloudy 10 - - - -
12/07:50pm 31.9 WSW 17 18 1008.6 - - - Partly cloudy 10 - - - -
12/07:40pm 32.2 WSW 18 20 1008.4 - - - Partly cloudy 10 - - - -
12/07:30pm 32.1 WSW 18 19 1008.4 - - - Partly cloudy 10 - - - -
12/07:20pm 32.3 W 18 19 1008.3 - - - Partly cloudy 10 - - - -
12/07:10pm 32.4 W 18 20 1008.1 - - - Partly cloudy 10 - - - -
12/07:00pm 31.7 W 16 17 1008.0 - - - Partly cloudy 10 - - - -
12/06:50pm 31.6 W 15 17 1007.9 - - - Partly cloudy 10 - - - -
12/06:40pm 31.8 W 15 16 1007.7 - - - Partly cloudy 10 - - - -
12/06:30pm 31.9 W 14 16 1007.5 - - - Partly cloudy 10 - - - -
12/06:20pm 32.3 W 15 17 1007.4 - - - - 10 - - - -
12/06:10pm 32.2 W 16 16 1007.3 - - - - 10 - - - -
12/06:00pm 32.1 WSW 17 18 1007.2 - - - - 10 - - - -
12/05:50pm 31.9 WSW 17 17 1007.0 - - - - 10 - - - -
12/05:40pm 31.5 WSW 16 15 1006.9 - - - - 10 - - - -
12/05:30pm 31.7 WSW 16 19 1006.8 - - - Partly cloudy 10 - - - -
12/05:20pm 32.2 WSW 19 20 1006.6 - - - Partly cloudy 10 - - - -
12/05:10pm 32.3 WSW 20 20 1006.4 - - - Partly cloudy 10 - - - -
12/05:00pm 32.1 W 19 20 1006.5 - - - Partly cloudy 10 - - - -
12/04:50pm 31.7 W 18 18 1006.6 - - - Partly cloudy 10 - - - -
12/04:40pm 32.2 W 18 21 1006.4 - - - Partly cloudy 10 - - - -
12/04:30pm 32.1 W 16 18 1006.3 - - - Partly cloudy 10 - - - -
12/04:20pm 32.1 W 16 17 1006.4 - - - Partly cloudy 10 - - - -
12/04:10pm 32.7 W 17 17 1006.6 - - - Partly cloudy 10 - - - -
12/04:00pm 32.2 W 14 17 1006.6 - - - Partly cloudy 10 - - - -
12/03:50pm 31.9 W 14 16 1006.7 - - - - 10 - - - -
12/03:40pm 31.2 WSW 15 16 1006.8 - - - - 10 - - - -
12/03:30pm 31.6 WSW 17 18 1006.8 - - - - 10 - - - -
12/03:20pm 31.9 WSW 17 18 1006.9 - - - - 10 - - - -
12/03:10pm 31.6 WSW 18 19 1007.1 - - - - 10 - - - -
12/03:00pm 31.9 WSW 15 20 1007.2 - - - Partly cloudy 10 - - - -
12/02:50pm 31.4 W 15 15 1007.3 - - - Partly cloudy 10 - - - -
12/02:40pm 32.4 W 15 17 1007.6 - - - Partly cloudy 10 - - - -
12/02:30pm 31.7 W 14 15 1007.8 - - - Partly cloudy 10 - - - -
12/02:20pm 33.3 W 13 14 1008.0 - - - Partly cloudy 10 - - - -
12/02:10pm 33.0 W 13 13 1008.2 - - - Partly cloudy 10 - - - -
12/02:00pm 32.9 W 14 16 1008.3 - - - Partly cloudy 10 - - - -
12/01:50pm 32.1 W 14 14 1008.5 - - - Partly cloudy 10 - - - -
12/01:40pm 32.6 W 13 16 1008.8 - - - Partly cloudy 10 - - - -
12/01:30pm 32.7 W 13 15 1008.9 - - - Partly cloudy 10 - - - -
12/01:20pm 32.3 W 13 14 1009.0 - - - Partly cloudy 10 - - - -
12/01:10pm 30.9 W 12 14 1009.1 - - - Partly cloudy 10 - - - -
12/01:00pm 31.7 W 14 17 1009.2 - - - Partly cloudy 10 - - - -
12/12:50pm 31.0 WSW 10 15 1009.2 - - - Partly cloudy 10 - - - -
12/12:40pm 30.9 WSW 11 16 1009.4 - - - Partly cloudy 10 - - - -
12/12:30pm 30.1 WSW 8 12 1009.6 - - - Partly cloudy 10 - - - -
12/12:20pm 29.2 SW 11 16 1009.7 - - - Partly cloudy 10 - - - -
12/12:10pm 28.9 SW 14 19 1009.7 - - - Partly cloudy 10 - - - -
12/12:00pm 30.1 WSW 12 12 1009.8 - - - Partly cloudy 10 - - - -
12/11:50am 33.1 W 12 11 1009.9 - - - Partly cloudy 10 - - - -
12/11:40am 33.0 W 12 13 1010.0 - - - Partly cloudy 10 - - - -
12/11:30am 32.6 WSW 12 13 1010.2 - - - Partly cloudy 10 - - - -
12/11:20am 32.5 WSW 12 12 1010.2 - - - Partly cloudy 10 - - - -
12/11:10am 32.5 WSW 12 13 1010.3 - - - Partly cloudy 10 - - - -
12/11:00am 32.1 WSW 12 14 1010.4 - - - Partly cloudy 10 - - - -
12/10:50am 31.9 WSW 11 12 1010.5 - - - Partly cloudy 10 - - - -
12/09:20am 31.4 WSW 17 18 1010.5 - - - Partly cloudy 10 - - - -
12/09:10am 31.9 WSW 18 19 1010.5 - - - Partly cloudy 10 - - - -
12/09:00am 31.6 WSW 20 20 1010.5 - - - Partly cloudy 10 - - - -
12/08:50am 31.2 WSW 19 20 1010.2 - - - Partly cloudy 10 - - - -
12/08:40am 32.9 WSW 21 20 1010.1 - - - Partly cloudy 10 - - - -
12/08:30am 33.5 WSW 20 21 1009.8 - - - Partly cloudy 10 - - - -
12/08:20am 33.0 W 20 22 1009.6 - - - Partly cloudy 10 - - - -
12/08:10am 30.2 W 18 20 1009.1 - - - Partly cloudy 10 - - - -
12/08:00am 30.1 W 18 19 1009.0 - - - Partly cloudy 10 - - - -
12/07:50am 29.7 W 19 20 1008.7 - - - Partly cloudy 10 - - - -
12/07:40am 29.6 W 20 22 1008.5 - - - Partly cloudy 10 - - - -
12/07:30am 29.8 W 20 21 1008.4 - - - Partly cloudy 10 - - - -
12/07:20am 29.7 W 20 21 1008.1 - - - - 10 - - - -
12/07:10am 31.4 W 21 21 1008.0 - - - - 10 - - - -
12/07:00am 31.0 W 18 20 1007.8 - - - - 10 - - - -
12/06:50am 31.9 W 21 23 1007.8 - - - - 10 - - - -
12/06:40am 31.3 W 20 21 1007.7 - - - - 10 - - - -
12/06:30am 30.1 W 19 21 1007.7 - - - - 10 - - - -
12/06:20am 30.0 W 19 19 1007.8 - - - - 10 - - - -
12/06:10am 30.5 W 19 21 1007.5 - - - - 10 - - - -
12/06:00am 29.5 W 17 18 1007.5 - - - - 10 - - - -
12/05:50am 29.8 W 19 19 1007.3 - - - - 10 - - - -
12/05:40am 29.6 W 19 20 1007.3 - - - - 10 - - - -
12/05:30am 29.2 W 20 22 1007.3 - - - - 10 - - - -
12/05:20am 29.2 W 20 23 1007.4 - - - - 10 - - - -
12/05:10am 29.6 W 20 21 1007.3 - - - - 10 - - - -
12/05:00am 29.6 W 18 21 1007.1 - - - - 10 - - - -
12/04:50am 29.5 W 17 18 1007.2 - - - - 10 - - - -

Other Formats:

Comma delimited format used in spreadsheet applications
http://www.bom.gov.au/fwo/IDD60701/IDD60701.95100.axf

JavaScript Object Notation format (JSON) in row-major order
http://www.bom.gov.au/fwo/IDD60701/IDD60701.95100.json